CW8690 Weather Reports


Display with metric or nautical units.
time (UTC)temp
F
wind
direction
speed
MPH
gust
MPH
rain 1hr
in
rain 24hr
in
rain mn
in
humidity
%
barometer
mb
20260506142636 82 157 3.0 10.0 0.00 0.00 0.00 91 1006.4
20260506141159 81 223 4.0 8.0 0.00 0.00 0.00 92 1006.7
20260506135618 80 174 2.0 7.0 0.00 0.00 0.00 92 1006.7
20260506134134 80 178 3.0 8.0 0.00 0.00 0.00 93 1006.4
20260506132637 80 180 3.0 8.0 0.00 0.00 0.00 93 1006.2
20260506131129 80 144 3.0 9.0 0.00 0.00 0.00 93 1006.2
20260506125628 79 145 5.0 9.0 0.00 0.00 0.00 94 1005.7
20260506124123 79 176 3.0 8.0 0.00 0.00 0.00 94 1005.5
20260506122624 79 165 3.0 7.0 0.00 0.00 0.00 94 1005.2
20260506121126 79 175 5.0 11.0 0.00 0.00 0.00 95 1005.1
20260506115630 79 153 5.0 12.0 0.00 0.00 0.00 95 1004.6
20260506114130 79 148 7.0 14.0 0.00 0.00 0.00 95 1004.3
20260506112633 79 91 6.0 14.0 0.00 0.00 0.00 95 1004.1
20260506111135 78 146 6.0 12.0 0.00 0.00 0.00 95 1004.0
20260506105633 79 175 8.0 13.0 0.00 0.00 0.00 95 1003.7
20260506104133 79 161 8.0 16.0 0.00 0.00 0.00 95 1003.5
20260506102644 79 137 8.0 12.0 0.00 0.00 0.00 94 1003.8
20260506101142 79 140 5.0 14.0 0.00 0.00 0.00 94 1003.6
20260506095619 79 124 6.0 15.0 0.00 0.00 0.00 95 1003.8
20260506094142 78 134 7.0 13.0 0.00 0.00 0.00 96 1003.7
20260506092643 78 130 5.0 12.0 0.00 0.00 0.00 96 1003.9
20260506091141 78 121 6.0 12.0 0.00 0.00 0.00 96 1004.0
20260506085635 78 85 5.0 9.0 0.00 0.00 0.00 96 1004.0
20260506084124 78 138 7.0 11.0 0.00 0.00 0.00 96 1004.1
20260506082621 78 136 6.0 9.0 0.00 0.00 0.00 96 1004.3
20260506081119 78 98 6.0 11.0 0.00 0.00 0.00 96 1004.4
20260506072622 78 141 5.0 14.0 0.00 0.00 0.00 95 1004.8
20260506071125 78 142 8.0 14.0 0.00 0.00 0.00 95 1004.9
20260506061120 78 129 7.0 13.0 0.00 0.00 0.00 94 1005.3
20260506051124 79 148 7.0 14.0 0.00 0.00 0.00 93 1006.2
20260506044120 79 126 8.0 13.0 0.00 0.00 0.00 92 1006.2
20260506042618 79 104 7.0 11.0 0.00 0.00 0.00 92 1006.3
20260506041140 80 117 8.0 14.0 0.00 0.00 0.00 91 1006.2
20260506035621 80 123 7.0 15.0 0.00 0.00 0.00 91 1006.2
20260506034117 80 164 7.0 13.0 0.00 0.00 0.00 91 1006.0
20260506032641 80 130 8.0 12.0 0.00 0.00 0.00 91 1005.8
20260506031116 80 98 6.0 13.0 0.00 0.00 0.00 91 1005.8
20260506025641 80 142 7.0 13.0 0.00 0.00 0.00 91 1005.5
20260506024139 80 104 8.0 14.0 0.00 0.00 0.00 90 1005.3
20260506022620 80 144 7.0 14.0 0.00 0.00 0.00 90 1005.0
20260506021135 80 134 9.0 15.0 0.00 0.00 0.00 90 1004.7
20260506015625 80 128 9.0 14.0 0.00 0.00 0.00 89 1004.3
20260506014125 80 148 9.0 15.0 0.00 0.00 0.00 89 1004.1
20260506012623 81 141 8.0 13.0 0.00 0.00 0.00 89 1004.1
20260506011141 81 110 7.0 15.0 0.00 0.00 0.00 88 1003.7
20260506005618 81 90 7.0 17.0 0.00 0.00 0.00 87 1003.5
20260506004118 81 138 8.0 18.0 0.00 0.00 0.00 87 1003.4
20260506002641 82 128 10.0 18.0 0.00 0.00 0.00 86 1003.4
20260506001157 82 121 11.0 17.0 0.00 0.00 0.00 86 1003.3
20260505235623 82 129 11.0 20.0 0.00 0.00 0.00 85 1003.2
20260505234146 83 134 11.0 19.0 0.00 0.00 0.00 84 1003.2
20260505232621 83 170 9.0 20.0 0.00 0.00 0.00 84 1003.2
20260505231121 84 126 13.0 19.0 0.00 0.00 0.00 81 1003.2
20260505225639 84 119 15.0 21.0 0.00 0.00 0.00 81 1003.0
20260505224140 84 161 13.0 22.0 0.00 0.00 0.00 81 1003.2
20260505222639 85 48 9.0 25.0 0.00 0.00 0.00 80 1003.4
20260505221135 85 138 9.0 20.0 0.00 0.00 0.00 79 1003.5
20260505215628 86 103 9.0 20.0 0.00 0.00 0.00 77 1003.8
20260505214122 87 141 10.0 20.0 0.00 0.00 0.00 75 1003.6
20260505212621 87 140 7.0 16.0 0.00 0.00 0.00 78 1003.7
20260505211142 87 140 8.0 17.0 0.00 0.00 0.00 76 1003.8
20260505205618 87 121 10.0 16.0 0.00 0.00 0.00 75 1004.0
20260505204140 86 102 12.0 16.0 0.00 0.00 0.00 76 1004.1
20260505202914 86 123 12.0 20.0 0.00 0.00 0.00 76 1004.4
20260505181125 86 185 9.0 16.0 0.00 0.00 0.00 77 1005.7
20260505175626 86 188 10.0 17.0 0.00 0.00 0.00 75 1005.9
20260505174125 86 119 8.0 20.0 0.00 0.00 0.00 76 1006.0
20260505172705 85 157 9.0 17.0 0.00 0.00 0.00 77 1006.1
20260505171117 85 102 8.0 18.0 0.00 0.00 0.00 78 1006.3
20260505165637 84 154 6.0 13.0 0.00 0.00 0.00 79 1006.4
20260505164148 84 169 7.0 14.0 0.00 0.00 0.00 80 1006.6
20260505162626 84 126 7.0 16.0 0.00 0.00 0.00 80 1006.8
20260505161147 83 175 9.0 16.0 0.00 0.00 0.00 80 1006.9
20260505152625 82 140 7.0 19.0 0.00 0.00 0.00 83 1006.9
20260505151124 82 177 7.0 19.0 0.00 0.00 0.00 83 1006.9